Wind_Speed
37 39 43 47 51 51 49 47 49 49 51 52 51 53 54 57 60 59 57 58 58 59 62 65 68 70 73 78 82 84 77 64 60 59 61 56 48 43
37 39 43 48 49 49 51 48 48 48 49 53 57 59 57 63 59 60 58 58 59 61 62 66 67 68 77 76 79 79 66 58 56 59 60 53 49 43
37 42 46 49 45 46 50 50 48 56 61 57 56 63 65 53 55 58 55 56 59 60 62 65 65 70 72 75 78 71 60 54 56 59 55 48 46 43
46 46 49 59 51 49 54 46 49 57 61 61 58 54 54 50 54 56 54 56 60 59 65 64 65 69 71 76 73 62 56 54 56 55 48 44 43 41
45 45 42 35 33 38 44 51 53 57 52 51 52 49 50 51 52 53 51 54 58 61 62 63 63 71 74 73 66 58 50 52 55 50 42 39 38 36
40 40 39 42 43 49 51 50 46 49 50 45 47 48 47 49 51 49 51 51 56 59 61 62 63 69 72 70 60 54 50 52 53 50 46 38 34 30
38 40 41 44 43 47 49 52 49 49 46 44 45 47 46 47 47 49 45 48 52 55 61 60 61 68 72 69 59 52 50 52 49 47 43 33 29 22
42 39 42 44 49 50 49 49 48 46 44 42 43 41 44 45 47 45 41 46 48 53 55 60 61 65 70 66 58 50 50 49 46 45 37 27 22 15
47 42 39 45 52 50 47 47 44 42 40 40 39 39 42 45 44 41 40 45 48 50 52 57 59 64 68 61 56 48 52 48 48 42 32 25 16 9
47 42 42 44 46 47 40 40 36 35 40 44 42 38 41 44 40 35 38 45 49 49 52 54 55 59 57 58 53 49 51 48 49 39 32 24 15 5
43 42 41 39 36 35 38 39 42 44 49 49 44 39 40 41 36 33 38 42 47 48 51 52 51 54 47 52 49 48 48 52 49 40 27 19 13 9
51 39 38 40 41 43 46 45 47 48 51 50 43 38 38 39 33 32 36 41 44 46 49 48 49 53 44 45 49 47 48 54 39 30 17 9 7 8
34 39 41 43 44 47 48 46 49 50 52 44 39 38 38 36 30 30 35 41 44 46 47 45 48 51 44 42 46 46 52 40 37 25 12 6 4 3
42 41 40 41 45 51 52 54 53 51 48 40 38 36 35 30 25 29 35 39 41 42 43 42 46 48 43 41 41 47 44 40 25 22 14 12 7 7
44 43 44 45 54 56 57 56 53 50 45 40 33 35 30 21 24 28 33 37 39 39 39 38 43 44 40 41 40 45 37 38 27 25 23 16 25 17
40 45 45 58 55 55 55 54 53 47 40 32 32 33 24 18 22 26 31 37 38 39 37 35 40 37 36 37 37 46 40 39 33 34 29 19 20 38
48 48 52 51 58 55 49 46 47 44 35 28 30 28 21 17 21 24 29 34 33 36 35 33 35 32 30 31 33 42 35 37 33 21 21 26 41 65
44 53 57 54 52 51 48 44 42 35 30 29 28 24 19 17 20 24 27 30 30 33 30 29 30 28 25 26 25 34 33 29 21 23 36 41 47 43
53 53 51 51 48 44 45 43 35 31 28 28 27 24 18 16 20 24 26 28 26 29 27 25 25 23 21 23 18 16 16 17 24 30 30 32 40 49
52 52 51 48 46 48 40 33 31 25 26 28 27 25 19 17 19 23 26 25 25 27 24 22 21 19 15 18 14 6 16 6 24 24 32 42 45 45
50 49 45 45 43 38 33 30 29 26 27 27 29 25 22 19 20 23 24 23 23 24 21 18 19 15 9 11 10 8 8 10 16 24 27 27 32 33
41 41 43 40 32 29 28 29 28 28 28 30 29 27 25 24 22 23 23 24 23 22 20 17 16 12 6 8 7 3 1 5 6 20 26 25 23 21
42 38 33 29 27 27 29 30 31 32 32 34 32 31 29 27 26 24 22 23 22 21 20 17 14 14 8 7 3 6 6 7 9 21 29 26 22 24
Wind_Direction
275 269 274 277 281 285 289 292 291 289 289 291 296 294 292 291 293 295 301 304 306 309 308 308 307 316 316 322 327 320 320 319 319 321 322 321 321 312
270 276 277 275 277 282 286 290 291 295 297 291 295 297 293 293 293 294 301 304 306 308 308 308 315 318 323 327 323 322 320 321 320 323 320 319 315 313
291 284 283 282 278 291 285 291 301 295 295 296 292 291 297 293 292 298 301 305 306 306 307 310 321 324 330 327 324 323 321 323 323 325 321 320 316 312
291 289 286 287 276 281 279 289 290 289 294 287 289 298 301 292 295 297 301 305 304 305 308 317 322 330 331 327 327 324 323 325 326 327 322 319 315 311
290 291 295 292 289 289 288 283 282 285 289 287 291 298 297 292 294 296 300 302 303 309 314 320 325 333 333 329 328 324 323 326 329 330 323 320 314 308
285 287 289 284 288 285 284 282 286 289 294 289 287 297 295 292 293 296 300 307 310 316 319 323 329 334 332 329 328 327 326 330 333 331 323 320 313 309
280 284 289 285 282 294 287 282 279 289 292 284 296 300 291 294 295 298 303 310 315 320 322 326 326 335 334 330 330 328 328 334 333 329 325 323 318 310
280 284 290 287 285 289 287 284 287 291 297 298 297 298 294 292 294 298 309 314 317 321 324 329 331 332 334 331 331 329 330 335 334 331 330 336 330 311
279 280 285 278 289 288 289 287 295 298 302 309 308 300 289 290 293 304 314 315 320 326 334 333 332 331 332 329 331 330 334 337 338 337 336 340 339 303
282 281 285 285 283 284 290 290 294 298 303 306 310 300 288 289 295 305 315 319 325 331 339 336 335 332 327 329 331 332 335 338 343 332 334 338 343 242
272 277 284 286 283 287 291 294 295 297 302 301 302 294 285 290 295 308 314 320 327 333 338 338 336 334 330 327 328 334 336 341 340 331 318 329 346 200
270 278 289 284 280 285 289 295 296 297 300 303 296 284 284 288 296 310 317 323 332 339 340 338 334 335 339 329 332 341 343 342 342 339 311 321 341 198
286 283 288 288 285 284 290 298 298 296 298 298 286 282 285 288 298 312 319 328 335 339 338 339 336 340 341 336 339 349 349 351 357 7 20 30 42 168
285 288 286 284 287 292 296 294 296 296 296 289 279 279 282 288 306 318 325 331 335 337 335 337 337 343 342 341 351 357 358 2 8 30 55 65 71 155
284 283 281 282 294 287 289 288 291 293 294 279 274 274 281 296 312 324 330 333 335 339 336 340 339 343 342 347 356 4 9 14 36 44 40 49 94 69
282 283 283 288 285 291 288 292 294 293 282 269 273 276 283 301 311 325 334 335 334 337 337 343 342 344 342 352 0 10 18 22 34 32 56 97 103 138
285 269 288 289 285 286 289 291 296 291 271 266 270 276 288 300 309 327 334 334 334 334 334 342 342 345 345 1 1 11 21 21 23 23 85 115 144 136
275 272 277 279 278 283 286 290 290 275 262 268 270 277 286 298 313 327 331 334 334 333 333 339 342 347 346 4 11 11 12 22 23 60 105 130 139 138
270 277 282 277 276 282 288 285 272 257 261 266 271 276 279 298 318 323 329 333 332 332 331 334 341 348 346 3 7 12 18 40 45 103 124 134 127 126
267 269 268 274 285 286 278 267 256 254 260 268 270 271 282 296 310 317 323 330 329 328 328 330 334 345 345 352 356 0 6 56 38 122 117 123 125 117
263 264 273 279 278 274 268 262 251 251 262 268 269 274 278 287 300 308 315 323 321 323 321 318 321 341 340 347 336 264 307 13 37 132 130 121 127 121
263 268 274 271 264 262 260 253 252 260 262 264 269 273 276 283 290 299 307 317 314 316 310 305 311 321 324 321 321 283 214 58 81 143 152 150 136 143
265 265 256 252 255 256 252 253 256 261 263 265 266 271 274 279 284 293 298 305 306 306 297 289 294 298 305 269 281 268 165 123 133 166 177 175 164 159
Height
5743 5743 5742 5741 5739 5735 5733 5731 5728 5725 5723 5719 5715 5710 5705 5701 5696 5690 5683 5677 5671 5664 5656 5646 5636 5624 5608 5591 5571 5553 5532 5515 5502 5490 5478 5467 5456 5448
5736 5733 5731 5728 5726 5724 5722 5720 5718 5714 5711 5707 5703 5698 5693 5687 5682 5677 5671 5665 5658 5651 5641 5630 5621 5607 5590 5571 5553 5533 5515 5501 5489 5476 5464 5453 5443 5434
5723 5721 5719 5716 5714 5712 5710 5708 5706 5704 5699 5694 5690 5685 5680 5674 5670 5665 5659 5652 5645 5637 5627 5618 5607 5591 5572 5555 5535 5516 5501 5488 5476 5463 5452 5440 5429 5421
5711 5708 5706 5702 5703 5700 5697 5697 5694 5691 5685 5681 5677 5672 5666 5663 5658 5653 5647 5640 5633 5624 5614 5604 5592 5574 5556 5537 5519 5501 5488 5477 5465 5451 5439 5428 5417 5409
5700 5698 5694 5692 5688 5689 5685 5686 5680 5678 5673 5667 5665 5661 5655 5651 5647 5641 5635 5629 5621 5610 5600 5589 5575 5559 5542 5521 5503 5490 5478 5467 5454 5440 5430 5419 5409 5401
5688 5687 5684 5682 5680 5677 5676 5674 5668 5664 5659 5653 5652 5649 5645 5640 5636 5631 5624 5617 5608 5596 5587 5574 5560 5544 5527 5508 5493 5478 5466 5456 5443 5430 5421 5411 5401 5394
5677 5677 5675 5672 5669 5666 5663 5659 5655 5652 5648 5644 5642 5638 5634 5630 5626 5621 5616 5608 5598 5586 5572 5563 5549 5531 5513 5497 5483 5470 5459 5448 5434 5421 5411 5403 5395 5389
5664 5663 5663 5660 5657 5655 5652 5649 5646 5642 5639 5635 5631 5626 5623 5619 5616 5612 5605 5598 5593 5580 5564 5547 5531 5514 5500 5486 5474 5462 5452 5440 5426 5414 5404 5397 5390 5386
5652 5652 5651 5648 5646 5642 5640 5638 5635 5631 5628 5625 5620 5615 5612 5610 5606 5601 5594 5588 5580 5570 5557 5540 5521 5502 5488 5475 5465 5453 5443 5431 5419 5408 5399 5393 5386 5384
5640 5639 5638 5636 5634 5631 5629 5626 5623 5619 5617 5615 5609 5604 5602 5600 5595 5592 5587 5580 5569 5558 5547 5534 5518 5500 5481 5469 5457 5446 5436 5425 5412 5401 5393 5389 5384 5383
5623 5626 5625 5623 5621 5620 5618 5615 5612 5609 5606 5603 5598 5595 5592 5591 5587 5583 5578 5573 5562 5550 5537 5525 5513 5500 5480 5465 5453 5444 5429 5417 5404 5394 5387 5383 5381 5383
5611 5612 5611 5611 5609 5608 5605 5602 5599 5597 5594 5591 5588 5584 5583 5582 5579 5573 5569 5564 5554 5543 5531 5519 5506 5493 5484 5462 5448 5439 5424 5409 5395 5385 5378 5377 5378 5380
5597 5600 5600 5598 5596 5594 5592 5590 5587 5584 5581 5578 5576 5575 5573 5571 5569 5566 5561 5554 5543 5532 5524 5512 5501 5487 5474 5461 5446 5433 5420 5404 5392 5381 5377 5377 5378 5380
5586 5585 5585 5585 5583 5581 5579 5578 5575 5572 5570 5567 5565 5565 5562 5561 5559 5556 5552 5545 5537 5528 5518 5508 5495 5483 5472 5459 5449 5435 5418 5405 5394 5388 5383 5381 5382 5384
5574 5573 5573 5571 5569 5567 5566 5565 5562 5560 5558 5557 5555 5555 5553 5551 5550 5547 5543 5537 5531 5523 5514 5505 5492 5481 5470 5459 5449 5439 5424 5410 5403 5398 5393 5390 5389 5391
5561 5560 5559 5558 5557 5556 5553 5553 5551 5550 5547 5546 5547 5547 5544 5543 5541 5538 5534 5529 5524 5518 5511 5502 5491 5482 5469 5460 5452 5440 5430 5421 5414 5408 5406 5402 5400 5402
5546 5546 5546 5544 5545 5542 5541 5539 5538 5539 5538 5537 5538 5539 5537 5536 5535 5531 5527 5524 5519 5514 5506 5501 5492 5483 5471 5464 5456 5447 5437 5429 5423 5417 5414 5412 5415 5424
5535 5534 5533 5532 5530 5529 5529 5526 5527 5527 5529 5529 5530 5530 5529 5529 5527 5523 5521 5518 5514 5510 5503 5499 5493 5485 5473 5466 5461 5455 5449 5445 5437 5431 5431 5432 5434 5437
5521 5521 5518 5517 5517 5515 5514 5515 5514 5516 5520 5521 5521 5522 5521 5520 5518 5516 5514 5512 5509 5505 5500 5496 5492 5485 5475 5471 5466 5463 5459 5456 5455 5452 5450 5449 5451 5452
5505 5504 5505 5504 5503 5503 5503 5502 5504 5506 5510 5512 5512 5512 5512 5511 5510 5508 5507 5505 5503 5501 5497 5495 5492 5485 5475 5472 5470 5471 5468 5469 5469 5469 5469 5466 5465 5460
5491 5491 5490 5489 5489 5489 5490 5492 5495 5497 5499 5501 5503 5502 5502 5502 5501 5500 5499 5497 5497 5495 5493 5492 5489 5485 5478 5474 5473 5471 5476 5474 5478 5479 5479 5480 5480 5477
5476 5475 5477 5477 5477 5478 5480 5483 5487 5489 5489 5490 5492 5492 5492 5492 5492 5491 5491 5491 5491 5490 5489 5489 5486 5483 5479 5477 5477 5472 5473 5479 5482 5485 5486 5488 5489 5488
5462 5462 5464 5466 5466 5468 5472 5475 5477 5478 5478 5480 5480 5480 5482 5481 5482 5482 5483 5482 5483 5484 5483 5483 5483 5480 5477 5474 5475 5479 5474 5475 5481 5485 5486 5488 5490 5493